TimeCST,TemperatureF,Dew PointF,Humidity,Sea Level PressureIn,VisibilityMPH,Wind Direction,Wind SpeedMPH,Gust SpeedMPH,PrecipitationIn,Events,Conditions,WindDirDegrees,DateUTC
12:15 AM,59.0,51.8,77,30.09,8.0,Calm,Calm,-,N/A,,Overcast,0,2012-11-27 06:15:00
12:35 AM,59.0,51.8,77,30.09,7.0,Calm,Calm,-,N/A,,Overcast,0,2012-11-27 06:35:00
12:55 AM,59.0,51.8,77,30.08,7.0,South,3.5,-,N/A,,Overcast,170,2012-11-27 06:55:00
1:15 AM,59.0,51.8,77,30.09,3.0,North,8.1,-,N/A,Rain,Light Rain,350,2012-11-27 07:15:00
4:15 AM,48.2,37.4,66,30.15,5.0,NNE,12.7,20.7,N/A,,Haze,30,2012-11-27 10:15:00
4:35 AM,48.2,35.6,62,30.16,10.0,North,12.7,-,N/A,,Overcast,10,2012-11-27 10:35:00
4:55 AM,48.2,33.8,58,30.16,10.0,NE,8.1,-,N/A,,Overcast,40,2012-11-27 10:55:00
5:15 AM,48.2,32.0,54,30.17,10.0,NNE,10.4,-,N/A,,Overcast,20,2012-11-27 11:15:00
5:35 AM,46.4,32.0,57,30.18,10.0,North,12.7,-,N/A,,Overcast,10,2012-11-27 11:35:00
5:55 AM,46.4,32.0,57,30.18,9.0,NNE,12.7,-,N/A,,Overcast,30,2012-11-27 11:55:00
6:35 AM,46.4,32.0,57,30.20,9.0,NE,10.4,-,N/A,,Overcast,40,2012-11-27 12:35:00
6:55 AM,46.4,32.0,57,30.21,10.0,NNE,10.4,-,N/A,,Overcast,30,2012-11-27 12:55:00
7:15 AM,46.4,32.0,57,30.21,8.0,NE,13.8,-,N/A,,Overcast,40,2012-11-27 13:15:00
7:35 AM,44.6,32.0,61,30.23,8.0,NNE,11.5,16.1,N/A,,Overcast,20,2012-11-27 13:35:00
7:55 AM,44.6,32.0,61,30.24,8.0,NE,10.4,17.3,N/A,,Overcast,40,2012-11-27 13:55:00
8:15 AM,44.6,32.0,61,30.26,8.0,NE,12.7,-,N/A,,Overcast,40,2012-11-27 14:15:00
8:35 AM,44.6,32.0,61,30.26,7.0,NE,11.5,21.9,N/A,,Overcast,50,2012-11-27 14:35:00
8:55 AM,46.4,32.0,57,30.27,7.0,NE,9.2,-,N/A,,Overcast,40,2012-11-27 14:55:00
9:35 AM,46.4,32.0,57,30.28,5.0,North,12.7,-,N/A,,Haze,10,2012-11-27 15:35:00
9:55 AM,46.4,32.0,57,30.29,5.0,North,11.5,-,N/A,,Haze,360,2012-11-27 15:55:00
10:15 AM,46.4,32.0,57,30.29,5.0,NNE,8.1,18.4,N/A,,Haze,20,2012-11-27 16:15:00
10:35 AM,46.4,32.0,57,30.29,4.0,NNE,9.2,-,N/A,,Haze,20,2012-11-27 16:35:00
10:55 AM,46.4,32.0,57,30.29,6.0,North,10.4,-,N/A,,Haze,10,2012-11-27 16:55:00
11:15 AM,46.4,32.0,57,30.28,5.0,North,11.5,-,N/A,,Haze,10,2012-11-27 17:15:00
11:35 AM,46.4,32.0,57,30.28,6.0,North,12.7,-,N/A,,Haze,360,2012-11-27 17:35:00
11:55 AM,46.4,32.0,57,30.28,7.0,NNE,6.9,16.1,N/A,,Overcast,20,2012-11-27 17:55:00
12:15 PM,46.4,32.0,57,30.27,5.0,North,10.4,-,N/A,,Haze,360,2012-11-27 18:15:00
12:35 PM,46.4,32.0,57,30.26,5.0,NNE,11.5,-,N/A,,Haze,20,2012-11-27 18:35:00
12:55 PM,46.4,32.0,57,30.26,6.0,North,10.4,-,N/A,,Haze,10,2012-11-27 18:55:00
1:15 PM,46.4,32.0,57,30.26,6.0,NNE,9.2,-,N/A,,Haze,30,2012-11-27 19:15:00
1:35 PM,46.4,32.0,57,30.26,7.0,NNE,10.4,-,N/A,,Overcast,30,2012-11-27 19:35:00
1:55 PM,46.4,32.0,57,30.26,7.0,NE,10.4,-,N/A,,Overcast,40,2012-11-27 19:55:00
2:15 PM,46.4,32.0,57,30.27,7.0,NE,9.2,-,N/A,,Overcast,40,2012-11-27 20:15:00
2:35 PM,46.4,32.0,57,30.28,7.0,North,9.2,-,N/A,,Overcast,10,2012-11-27 20:35:00
2:55 PM,46.4,32.0,57,30.28,8.0,North,10.4,-,N/A,,Overcast,360,2012-11-27 20:55:00
3:15 PM,46.4,32.0,57,30.29,7.0,North,12.7,-,N/A,,Overcast,360,2012-11-27 21:15:00
3:55 PM,46.4,32.0,57,30.29,7.0,NNE,10.4,-,N/A,,Overcast,30,2012-11-27 21:55:00
4:15 PM,46.4,32.0,57,30.30,7.0,NNE,6.9,-,N/A,,Overcast,30,2012-11-27 22:15:00
4:35 PM,44.6,32.0,61,30.31,7.0,NNE,5.8,-,N/A,,Overcast,20,2012-11-27 22:35:00
4:55 PM,44.6,30.2,57,30.31,8.0,NE,8.1,-,N/A,,Overcast,50,2012-11-27 22:55:00
5:15 PM,44.6,30.2,57,30.32,9.0,NNE,9.2,-,N/A,,Overcast,30,2012-11-27 23:15:00
5:35 PM,44.6,30.2,57,30.33,8.0,NE,10.4,-,N/A,,Overcast,40,2012-11-27 23:35:00
5:55 PM,44.6,30.2,57,30.34,9.0,NE,11.5,-,N/A,,Overcast,40,2012-11-27 23:55:00
6:15 PM,44.6,30.2,57,30.34,9.0,NNE,8.1,-,N/A,,Overcast,20,2012-11-28 00:15:00
6:55 PM,42.8,28.4,57,30.35,9.0,North,6.9,-,N/A,,Overcast,350,2012-11-28 00:55:00
7:15 PM,39.2,26.6,61,30.35,8.0,NE,8.1,-,N/A,,Mostly Cloudy,50,2012-11-28 01:15:00
7:35 PM,39.2,26.6,61,30.35,8.0,NE,5.8,-,N/A,,Partly Cloudy,40,2012-11-28 01:35:00
7:55 PM,37.4,24.8,60,30.35,8.0,NE,5.8,-,N/A,,Clear,50,2012-11-28 01:55:00
8:15 PM,37.4,23.0,56,30.34,7.0,NNE,5.8,-,N/A,,Clear,30,2012-11-28 02:15:00
8:35 PM,35.6,23.0,60,30.34,8.0,NE,3.5,-,N/A,,Clear,50,2012-11-28 02:35:00
8:55 PM,35.6,21.2,56,30.34,8.0,North,-9999.0,-,N/A,,Clear,0,2012-11-28 02:55:00
9:15 PM,33.8,21.2,60,30.35,6.0,North,-9999.0,-,N/A,,Haze,0,2012-11-28 03:15:00
9:35 PM,33.8,19.4,56,30.35,6.0,North,-9999.0,-,N/A,,Haze,0,2012-11-28 03:35:00
9:55 PM,32.0,19.4,60,30.35,4.0,North,-9999.0,-,N/A,,Haze,0,2012-11-28 03:55:00
10:15 PM,32.0,19.4,60,30.36,4.0,North,-9999.0,-,N/A,,Haze,0,2012-11-28 04:15:00
10:35 PM,32.0,17.6,55,30.36,1.8,Calm,Calm,-,N/A,,Haze,0,2012-11-28 04:35:00
10:55 PM,30.2,17.6,60,30.38,1.5,NNE,3.5,-,N/A,,Haze,20,2012-11-28 04:55:00
11:35 PM,32.0,17.6,55,30.37,3.0,NNE,3.5,-,N/A,,Haze,20,2012-11-28 05:35:00
11:55 PM,30.2,17.6,60,30.37,2.5,Calm,Calm,-,N/A,,Haze,0,2012-11-28 05:55:00